Muenchen, Germany

4:12 PM CEST on September 30, 2016 (GMT +0200)
Munich Airport

Weather History for EDDM - April, 2013

Change the Weather History Date:

Saturday, April 13, 2013

  Actual Average Record
Temperature  
Mean Temperature 46 °F -  
Max Temperature 55 °F 53 °F 73 °F (2007)
Min Temperature 37 °F 36 °F 30 °F (2001)
Degree Days  
Heating Degree Days 19    
Moisture  
Dew Point 38 °F    
Average Humidity 68    
Maximum Humidity 100    
Minimum Humidity 47    
Precipitation  
Precipitation 0.00 in - - ()
Sea Level Pressure  
Sea Level Pressure 30.09 in    
Wind  
Wind Speed 11 mph ()    
Max Wind Speed 21 mph    
Max Gust Speed 32 mph    
Visibility 6.2 miles    
Events Rain    
Averages and records for this station are not official NWS values.
T = Trace of Precipitation, MM = Missing Value Source: Averaged Metar Reports

Daily Weather History Graph

Daily Weather History Graph

Search for Another Location

Airport or City:

Trip Planner

Search our weather history database for the weather conditions in past years. The results will help you decide how hot, cold, wet, or windy it might be!

Date:

Astronomy

Apr. 13, 2013 Rise Set
Actual Time 6:26 AM CEST 8:00 PM CEST
Civil Twilight 5:54 AM CEST 8:33 PM CEST
Nautical Twilight 5:14 AM CEST 9:13 PM CEST
Astronomical Twilight 4:31 AM CEST 9:57 PM CEST
Moon 7:53 AM CEST (4/13) 11:23 PM CEST (4/13)
Length of Visible Light 14h 39m
Length of Day
13h 34m
Waxing Crescent, 9% of the Moon is Illuminated
Apr 13
Waxing Crescent
Apr 18
First Quarter
Apr 25
Full
May 2
Last Quarter
May 10
New

Hourly Weather History & Observations

Time (CEST) Temp. Windchill Dew Point Humidity Pressure Visibility Wind Dir Wind Speed Gust Speed Precip Events Conditions
12:20 AM 44.6 °F 36.9 °F 37.4 °F 76% 29.89 in - WSW 18.4 mph - N/A   Clear
12:50 AM 44.6 °F 38.4 °F 39.2 °F 81% 29.92 in - WSW 12.7 mph - N/A   Clear
1:20 AM 46.4 °F 40.1 °F 39.2 °F 76% 29.92 in - WSW 15.0 mph - N/A   Clear
1:50 AM 44.6 °F 38.1 °F 37.4 °F 76% 29.92 in - WSW 13.8 mph - N/A   Clear
2:20 AM 44.6 °F 39.2 °F 37.4 °F 76% 29.95 in - WSW 10.4 mph - N/A   Clear
2:50 AM 44.6 °F 39.2 °F 37.4 °F 76% 29.95 in - WSW 10.4 mph - N/A   Clear
3:20 AM 42.8 °F 37.0 °F 37.4 °F 81% 29.95 in - WSW 10.4 mph - N/A   Clear
3:50 AM 44.6 °F 39.7 °F 37.4 °F 76% 29.95 in - WSW 9.2 mph - N/A   Clear
4:20 AM 42.8 °F 38.6 °F 37.4 °F 81% 29.98 in - SW 6.9 mph - N/A   Clear
4:50 AM 42.8 °F 38.6 °F 35.6 °F 76% 29.98 in - WSW 6.9 mph - N/A   Clear
5:20 AM 42.8 °F 38.6 °F 37.4 °F 81% 29.98 in - SSW 6.9 mph - N/A   Clear
5:50 AM 42.8 °F 37.5 °F 37.4 °F 81% 29.98 in - SW 9.2 mph - N/A   Clear
6:20 AM 46.4 °F 41.1 °F 39.2 °F 76% 29.98 in - West 11.5 mph - N/A   Clear
6:50 AM 44.6 °F 37.4 °F 39.2 °F 81% 30.01 in 6.2 mi WSW 16.1 mph - N/A   Mostly Cloudy
7:20 AM 46.4 °F 40.7 °F 39.2 °F 76% 30.04 in 6.2 mi West 12.7 mph - N/A   Mostly Cloudy
7:50 AM 46.4 °F 41.1 °F 39.2 °F 76% 30.04 in 6.2 mi West 11.5 mph - N/A   Scattered Clouds
8:20 AM 48.2 °F - 41.0 °F 76% 30.06 in 6.2 mi WSW 17.3 mph - N/A   Partly Cloudy
8:50 AM 50.0 °F - 41.0 °F 71% 30.06 in 6.2 mi WSW 20.7 mph - N/A   Partly Cloudy
9:20 AM 50.0 °F - 39.2 °F 66% 30.06 in 6.2 mi West 19.6 mph - N/A   Partly Cloudy
9:50 AM 51.8 °F - 39.2 °F 62% 30.09 in 6.2 mi West 17.3 mph - N/A   Partly Cloudy
10:20 AM 51.8 °F - 37.4 °F 58% 30.09 in 6.2 mi WSW 20.7 mph - N/A   Partly Cloudy
10:50 AM 51.8 °F - 35.6 °F 54% 30.09 in 6.2 mi West 19.6 mph - N/A   Partly Cloudy
11:20 AM 55.4 °F - 39.2 °F 54% 30.12 in 6.2 mi West 17.3 mph - N/A   Scattered Clouds
11:50 AM 55.4 °F - 39.2 °F 54% 30.12 in 6.2 mi West 18.4 mph 32.2 mph N/A   Scattered Clouds
12:20 PM 55.4 °F - 37.4 °F 51% 30.12 in 6.2 mi West 17.3 mph - N/A   Scattered Clouds
12:50 PM 55.4 °F - 35.6 °F 47% 30.12 in 6.2 mi West 18.4 mph - N/A   Scattered Clouds
1:20 PM 53.6 °F - 33.8 °F 47% 30.12 in 6.2 mi West 16.1 mph - N/A   Scattered Clouds
1:50 PM 53.6 °F - 39.2 °F 58% 30.12 in 6.2 mi WNW 9.2 mph - N/A   Scattered Clouds
2:20 PM 55.4 °F - 37.4 °F 51% 30.12 in 6.2 mi West 5.8 mph - N/A   Scattered Clouds
2:50 PM 55.4 °F - 39.2 °F 54% 30.15 in 6.2 mi WSW 19.6 mph - N/A   Mostly Cloudy
3:20 PM 51.8 °F - 41.0 °F 67% 30.15 in 6.2 mi West 19.6 mph - N/A   Mostly Cloudy
3:50 PM 53.6 °F - 39.2 °F 58% 30.15 in 6.2 mi WNW 12.7 mph - N/A   Scattered Clouds
4:20 PM 55.4 °F - 37.4 °F 51% 30.15 in 6.2 mi West 12.7 mph - N/A   Scattered Clouds
4:50 PM 51.8 °F - 41.0 °F 67% 30.15 in 6.2 mi West 12.7 mph 25.3 mph N/A Rain Rain Showers
5:20 PM 53.6 °F - 39.2 °F 58% 30.15 in 6.2 mi West 9.2 mph - N/A   Scattered Clouds
5:50 PM 55.4 °F - 39.2 °F 54% 30.15 in 6.2 mi West 9.2 mph - N/A   Scattered Clouds
6:20 PM 55.4 °F - 35.6 °F 47% 30.15 in 6.2 mi West 11.5 mph - N/A   Scattered Clouds
6:50 PM 55.4 °F - 39.2 °F 54% 30.15 in 6.2 mi WNW 9.2 mph - N/A   Scattered Clouds
7:20 PM 53.6 °F - 37.4 °F 54% 30.18 in - WNW 5.8 mph - N/A   Clear
7:50 PM 53.6 °F - 37.4 °F 54% 30.18 in - WNW 2.3 mph - N/A   Clear
8:20 PM 51.8 °F - 37.4 °F 58% 30.18 in - West 3.5 mph - N/A   Clear
8:50 PM 50.0 °F - 35.6 °F 58% 30.21 in - West 2.3 mph - N/A   Clear
9:20 PM 44.6 °F 43.1 °F 37.4 °F 76% 30.21 in - WNW 3.5 mph - N/A   Clear
9:50 PM 41.0 °F 39.0 °F 37.4 °F 87% 30.24 in - SSW 3.5 mph - N/A   Clear
10:20 PM 41.0 °F - 37.4 °F 87% 30.24 in - SSW 2.3 mph - N/A   Clear
10:50 PM 37.4 °F 34.9 °F 35.6 °F 93% 30.24 in - South 3.5 mph - N/A   Clear
11:20 PM 39.2 °F - 37.4 °F 93% 30.27 in - South 2.3 mph - N/A   Clear
11:50 PM 37.4 °F 34.9 °F 37.4 °F 100% 30.27 in - SSW 3.5 mph - N/A   Clear